Location: Newark
(44.6768°N, 22.5302°E)
Time: 21:50:40
(UTC+00:00)

AO-92 - Pass Details

Date: 04 July 2022
Orbit: 469 x 481 km, 97.4° (Epoch: 13 August)

Event Time Altitude Azimuth Distance (km) Brightness Sun altitude
Exits shadow 21:32:17 15° 251° (WSW) 1,372 ? -21.0°
Maximum altitude 21:33:07 16° 268° (W) 1,325 ? -21.1°
Drops below altitude 10° 21:35:24 10° 308° (NW) 1,665 ? -21.2°
Sets 21:38:07 0° 330° (NNW) 2,554 ? -21.3°
